119  
ASUS41 KALY 282110  
RWRALY  
 
NEW YORK STATE HOURLY WEATHER ROUNDUP  
NATIONAL WEATHER SERVICE ALBANY NY  
500 PM EDT FRI APR 28 2017  
 
NOTE: "FAIR" INDICATES FEW OR NO CLOUDS BELOW 12,000 FEET WITH NO  
SIGNIFICANT WEATHER AND/OR NO S TO VISIBILITY
.  
 
NYZ032-033-038>043-046>054-057>066-NYZ062>081-082-084-282200-  
EAST  
 
 
CITY SKY/WX TMP DP RH WIND PRES REMARKS
 
ALBANY MOSUNNY 79 51 37 N12 29.96S  
GLENS FALLS SUNNY 78 34 20 SW14G20 29.95R  
POUGHKEEPSIE SUNNY 84 42 22 SW9 29.91F  
NEWBURGH MOSUNNY 84 46 26 W9G18 29.96F  
MONTGOMERY SUNNY 85 43 22 SW13 29.93S  
WHITE PLAINS SUNNY 83 45 26 SW12G20 29.96F  
ISLIP MOSUNNY 75 59 57 SW14 29.99S  
NEW YORK CITY MOSUNNY 81 56 42 S17 29.96F  
CENTRAL PARK SUNNY 81 55 40 VRB6 30.00S  

 
 
NYZ005>009-017-018-044>046-055-056-282200-  
CENTRAL  
 
 
CITY SKY/WX TMP DP RH WIND PRES REMARKS
 
FULTON CLOUDY 66 47 50 NW8 29.99F  
SYRACUSE CLOUDY 71 45 39 W8 29.97F  
ROME MOSUNNY 70 44 39 VRB3 29.99F  
ELMIRA CLOUDY 75 41 29 SW7 29.97F  
BINGHAMTON CLOUDY 70 39 32 W6 30.01F  
MONTICELLO SUNNY 79 43 27 W10 30.00F  

 
 
NYZ026>034-041>043-087-282200-  
NORTH  
 
 
CITY SKY/WX TMP DP RH WIND PRES REMARKS
 
WATERTOWN PTSUNNY 59 44 57 W9 30.01F  
FORT DRUM NOT AVBL  
OGDENSBURG FAIR 65 45 49 SW16G24 29.98S  
MASSENA SUNNY 68 45 43 SW15G26 29.96S  
SARANAC LAKE SUNNY 70 26 19 SW13G25 29.96S  
PLATTSBURGH PTSUNNY 79 27 14 W8G22 29.89F  

 
 
NYZ001>004-010>016-019>021-085-282200-  
WEST  
 
 
CITY SKY/WX TMP DP RH WIND PRES REMARKS
 
NIAGARA FALLS MOSUNNY 66 46 48 SW10 30.00R  
BUFFALO PTSUNNY 58 43 57 SW9 30.01F  
DUNKIRK MOSUNNY 53 42 66 W8 30.04R  
JAMESTOWN CLOUDY 64 39 39 SW10 30.04R  
WELLSVILLE CLOUDY 69 32 25 SW8 30.05R  
ROCHESTER CLOUDY 66 46 48 NE8 29.99F  
PENN YAN CLOUDY 71 43 36 N7 29.99F  

 
 
KEY  
WCI = WIND CHILL INDEX  
VSB = VISIBILITY  
HX = HEAT INDEX  

 
 
 
CLICK HERE TO GO TO PREVIOUS BULLETINS.

The Nexlab NY Page
The Nexlab VT Page
The Nexlab MA Page
The Nexlab CT Page Main Text Page